Weather History for Waukesha, WI

Change the Weather History Date:

Saturday, November 12, 2011

  Actual Average Record
Temperature  
Mean Temperature 44 °F -  
Max Temperature 55 °F 44 °F 63 °F (1964)
Min Temperature 32 °F 27 °F 12 °F (1976)
Degree Days  
Heating Degree Days 22    
Moisture  
Dew Point 34 °F    
Average Humidity 74    
Maximum Humidity 93    
Minimum Humidity 51    
Precipitation  
Precipitation 0.00 in - - ()
Sea Level Pressure  
Sea Level Pressure 29.64 in    
Wind  
Wind Speed 7 mph (SSW)    
Max Wind Speed 16 mph    
Max Gust Speed 26 mph    
Visibility 10 miles    
Events      
Averages and records for this station are not official NWS values.
T = Trace of Precipitation, MM = Missing Value Source: NWS Daily Summary

Daily Weather History Graph

Daily Weather History Graph

Search for Another Location

Airport:

Trip Planner

Search our weather history database for the weather conditions in past years. The results will help you decide how hot, cold, wet, or windy it might be!

Date:

Astronomy

Nov. 12, 2011 Rise Set
Actual Time 6:41 AM CST 4:32 PM CST
Civil Twilight 6:10 AM CST 5:02 PM CST
Nautical Twilight 5:36 AM CST 5:36 PM CST
Astronomical Twilight 5:03 AM CST 6:10 PM CST
Moon 5:45 PM CST (11/12) 8:26 AM CST (11/12)
Length of Visible Light 10h 51m
Length of Day
9h 51m
Full, 97% of the Moon is Illuminated
Nov 12
Full
Nov 18
Last Quarter
Nov 25
New
Dec 2
First Quarter
Dec 10
Full

Hourly Weather History & Observations

Time (CST) Temp. Windchill Dew Point Humidity Pressure Visibility Wind Dir Wind Speed Gust Speed Precip Events Conditions
12:15 AM 33.8 °F 29.6 °F 30.2 °F 87% 29.70 in 10.0 mi SW 4.6 mph - N/A   Clear
12:35 AM 32.0 °F 27.5 °F 30.2 °F 93% 29.71 in 10.0 mi SSW 4.6 mph - N/A   Clear
12:55 AM 33.8 °F 29.6 °F 30.2 °F 87% 29.70 in 10.0 mi SW 4.6 mph - N/A   Clear
1:15 AM 33.8 °F 27.7 °F 30.2 °F 87% 29.71 in 10.0 mi SW 6.9 mph - N/A   Clear
1:35 AM 33.8 °F - 30.2 °F 87% 29.71 in 10.0 mi Calm Calm - N/A   Clear
1:55 AM 33.8 °F 30.8 °F 30.2 °F 87% 29.71 in 10.0 mi SW 3.5 mph - N/A   Clear
2:15 AM 33.8 °F - 30.2 °F 87% 29.71 in 10.0 mi Calm Calm - N/A   Clear
2:35 AM 33.8 °F 30.8 °F 30.2 °F 87% 29.70 in 10.0 mi SSW 3.5 mph - N/A   Clear
2:55 AM 33.8 °F - 30.2 °F 87% 29.70 in 10.0 mi Calm Calm - N/A   Clear
3:15 AM 32.0 °F 28.7 °F 28.4 °F 87% 29.70 in 10.0 mi SSW 3.5 mph - N/A   Clear
3:35 AM 32.0 °F 27.5 °F 30.2 °F 93% 29.70 in 10.0 mi SSW 4.6 mph - N/A   Clear
3:55 AM 32.0 °F 28.7 °F 30.2 °F 93% 29.70 in 10.0 mi SSW 3.5 mph - N/A   Clear
4:15 AM 32.0 °F - 30.2 °F 93% 29.71 in 10.0 mi Calm Calm - N/A   Clear
4:35 AM 32.0 °F - 30.2 °F 93% 29.71 in 10.0 mi Calm Calm - N/A   Clear
5:45 AM 33.8 °F 28.6 °F 28.4 °F 81% 29.71 in 10.0 mi SSW 5.8 mph - N/A   Clear
6:45 AM 32.0 °F 26.4 °F 28.4 °F 87% 29.73 in 10.0 mi SSW 5.8 mph - N/A   Clear
7:45 AM 35.6 °F 30.7 °F 30.2 °F 81% 29.74 in 10.0 mi SSW 5.8 mph - N/A   Clear
9:45 AM 44.6 °F 42.2 °F 35.6 °F 71% 29.74 in 10.0 mi SW 4.6 mph - N/A   Clear
10:45 AM 48.2 °F - 35.6 °F 62% 29.75 in 10.0 mi SSW 9.2 mph - N/A   Clear
12:45 PM 53.6 °F - 35.6 °F 51% 29.71 in 10.0 mi SSW 16.1 mph - N/A   Clear
1:45 PM 55.4 °F - 39.2 °F 54% 29.69 in 10.0 mi SSW 11.5 mph - N/A   Clear
2:45 PM 53.6 °F - 39.2 °F 58% 29.68 in 10.0 mi South 12.7 mph - N/A   Clear
3:45 PM 51.8 °F - 35.6 °F 54% 29.66 in 10.0 mi South 10.4 mph - N/A   Clear
4:45 PM 50.0 °F - 35.6 °F 58% 29.63 in 10.0 mi SSE 6.9 mph - N/A   Clear
5:45 PM 50.0 °F - 35.6 °F 58% 29.61 in 10.0 mi South 11.5 mph - N/A   Clear
6:45 PM 50.0 °F - 35.6 °F 58% 29.58 in 10.0 mi South 10.4 mph - N/A   Clear
8:15 PM 50.0 °F - 35.6 °F 58% 29.57 in 10.0 mi South 12.7 mph 26.5 mph N/A   Clear
8:35 PM 50.0 °F - 35.6 °F 58% 29.57 in 10.0 mi South 12.7 mph 24.2 mph N/A   Clear
8:45 PM 50.0 °F - 35.6 °F 58% 29.57 in 10.0 mi South 15.0 mph - N/A   Clear
8:55 PM 50.0 °F - 35.6 °F 58% 29.57 in 10.0 mi SSW 13.8 mph 23.0 mph N/A   Clear
9:15 PM 50.0 °F - 35.6 °F 58% 29.57 in 10.0 mi SSW 13.8 mph 24.2 mph N/A   Clear
9:35 PM 50.0 °F - 37.4 °F 62% 29.56 in 10.0 mi SSW 12.7 mph 23.0 mph N/A   Scattered Clouds
9:55 PM 50.0 °F - 39.2 °F 66% 29.55 in 10.0 mi South 13.8 mph 20.7 mph N/A   Scattered Clouds
10:15 PM 50.0 °F - 41.0 °F 71% 29.54 in 10.0 mi South 13.8 mph 19.6 mph N/A   Mostly Cloudy
10:35 PM 50.0 °F - 41.0 °F 71% 29.53 in 10.0 mi South 11.5 mph 18.4 mph N/A   Scattered Clouds
10:55 PM 50.0 °F - 41.0 °F 71% 29.52 in 10.0 mi South 13.8 mph 18.4 mph N/A   Clear
11:15 PM 50.0 °F - 42.8 °F 76% 29.51 in 10.0 mi South 13.8 mph 21.9 mph N/A   Clear
11:35 PM 50.0 °F - 42.8 °F 76% 29.50 in 10.0 mi South 12.7 mph 18.4 mph N/A   Clear
11:55 PM 50.0 °F - 42.8 °F 76% 29.49 in 10.0 mi South 15.0 mph 20.7 mph N/A   Scattered Clouds